Location: ?astrovice
(49.6513°N, 14.9287°E)
Time: 07:13:42
(UTC+00:00)

Cosmos 1356 Rocket - Pass Details

Date: 09 April 2020
Orbit: 543 x 599 km, 81.2° (Epoch: 02 June)

Event Time Altitude Azimuth Distance (km) Brightness Sun altitude
Exits shadow 20:13:42 66° 101° (ESE) 650 3.4 -21.8°
Maximum altitude 20:13:43 66° 99° (E) 650 3.4 -21.8°
Drops below altitude 10° 20:17:57 10° 17° (NNE) 1,920 6.4 -22.2°
Sets 20:20:09 0° 15° (NNE) 2,817 7.4 -22.5°
